Prague, Czech Republic

11:13 PM CEST on August 22, 2017 (GMT +0200)
Ruzyne

Weather History for LKPR - July, 2013

Change the Weather History Date:

Friday, July 12, 2013

  Actual Average Record
Temperature  
Mean Temperature 61 °F -  
Max Temperature 70 °F 74 °F 93 °F (2010)
Min Temperature 52 °F 53 °F 48 °F (2000)
Degree Days  
Heating Degree Days 4    
Growing Degree Days 11 (Base 50)    
Moisture  
Dew Point 50 °F    
Average Humidity 67    
Maximum Humidity 88    
Minimum Humidity 39    
Precipitation  
Precipitation 0.00 in 0.09 in - ()
Sea Level Pressure  
Sea Level Pressure 30.11 in    
Wind  
Wind Speed 8 mph ()    
Max Wind Speed 15 mph    
Max Gust Speed -    
Visibility 6.9 miles    
Events      
Averages and records for this station are not official NWS values.
T = Trace of Precipitation, MM = Missing Value Source: Averaged Metar Reports

Daily Weather History Graph

Daily Weather History Graph

Search for Another Location

Airport or City:

Trip Planner

Search our weather history database for the weather conditions in past years. The results will help you decide how hot, cold, wet, or windy it might be!

Date:

Astronomy

Jul. 12, 2013 Rise Set
Actual Time 5:06 AM CEST 9:09 PM CEST
Civil Twilight 4:23 AM CEST 9:52 PM CEST
Nautical Twilight 3:23 AM CEST 10:52 PM CEST
Astronomical Twilight 1:40 AM CEST 12:54 AM CEST
Moon 9:36 AM CEST (7/12) 10:38 PM CEST (7/12)
Length of Visible Light 17h 28m
Length of Day
16h 02m
Waxing Crescent, 15% of the Moon is Illuminated
Jul 12
Waxing Crescent
Jul 16
First Quarter
Jul 22
Full
Jul 29
Last Quarter
Aug 6
New

Hourly Weather History & Observations

Time (CEST) Temp. Dew Point Humidity Pressure Visibility Wind Dir Wind Speed Gust Speed Precip Events Conditions
12:00 AM 54 °F 49 °F 79% 30.10 in 31 mi WSW 6.7 mph - -   Mostly Cloudy
12:00 AM 53.6 °F 50.0 °F 88% 30.09 in - WSW 6.9 mph - N/A   Clear
12:30 AM 53.6 °F 50.0 °F 88% 30.09 in - West 6.9 mph - N/A   Clear
1:00 AM 55 °F 50 °F 79% 30.09 in 31 mi West 6.7 mph - -   Mostly Cloudy
1:00 AM 55.4 °F 50.0 °F 82% 30.09 in - West 8.1 mph - N/A   Clear
1:30 AM 57.2 °F 50.0 °F 77% 30.09 in - West 6.9 mph - N/A   Clear
2:00 AM 56 °F 50 °F 73% 30.09 in 31 mi West 8.9 mph - -   Mostly Cloudy
2:00 AM 55.4 °F 50.0 °F 82% 30.06 in - WNW 8.1 mph - N/A   Clear
2:30 AM 57.2 °F 50.0 °F 77% 30.06 in - WNW 11.5 mph - N/A   Clear
3:00 AM 55.4 °F 50.0 °F 82% 30.09 in - WNW 10.4 mph - N/A   Clear
3:15 AM 56 °F 50 °F 73% 30.09 in 31 mi West 8.9 mph - -   Mostly Cloudy
3:30 AM 53.6 °F 50.0 °F 88% 30.06 in - West 10.4 mph - N/A   Clear
4:00 AM 53 °F 49 °F 81% 30.09 in 31 mi West 8.9 mph - -   Mostly Cloudy
4:00 AM 53.6 °F 50.0 °F 88% 30.06 in - West 9.2 mph - N/A   Clear
4:30 AM 53.6 °F 50.0 °F 88% 30.06 in - West 11.5 mph - N/A   Clear
5:00 AM 54 °F 50 °F 81% 30.09 in 19 mi West 6.7 mph - -   Mostly Cloudy
5:00 AM 53.6 °F 50.0 °F 88% 30.09 in - West 9.2 mph - N/A   Clear
5:30 AM 53.6 °F 50.0 °F 88% 30.09 in - West 8.1 mph - N/A   Clear
6:00 AM 53 °F 49 °F 83% 30.11 in 25 mi West 6.7 mph - -   Partly Cloudy
6:00 AM 53.6 °F 50.0 °F 88% 30.09 in - West 6.9 mph - N/A   Clear
6:30 AM 51.8 °F 48.2 °F 88% 30.09 in - West 6.9 mph - N/A   Clear
7:00 AM 54 °F 50 °F 83% 30.11 in 37 mi WSW 6.7 mph - -   Mostly Cloudy
7:00 AM 53.6 °F 50.0 °F 88% 30.09 in - West 6.9 mph - N/A   Clear
7:30 AM 57.2 °F 50.0 °F 77% 30.09 in - West 5.8 mph - N/A   Clear
8:00 AM 56 °F 51 °F 77% 30.12 in 31 mi WSW 6.7 mph - -   Mostly Cloudy
8:00 AM 55.4 °F 51.8 °F 88% 30.09 in - WSW 9.2 mph - N/A   Clear
8:30 AM 59.0 °F 50.0 °F 72% 30.12 in - West 9.2 mph - N/A   Clear
9:00 AM 59 °F 48 °F 59% 30.11 in 31 mi WNW 11.2 mph - -   Scattered Clouds
9:00 AM 59.0 °F 50.0 °F 72% 30.12 in 6.2 mi WNW 10.4 mph - N/A   Partly Cloudy
9:30 AM 59.0 °F 50.0 °F 72% 30.12 in 6.2 mi WNW 15.0 mph - N/A   Partly Cloudy
10:00 AM 61 °F 49 °F 55% 30.12 in 31 mi NW 11.2 mph - -   Partly Cloudy
10:00 AM 60.8 °F 50.0 °F 68% 30.12 in 6.2 mi NW 15.0 mph - N/A   Scattered Clouds
10:30 AM 64.4 °F 50.0 °F 59% 30.12 in 6.2 mi NW 15.0 mph - N/A   Scattered Clouds
11:00 AM 65 °F 51 °F 51% 30.11 in 31 mi NW 11.2 mph - -   Partly Cloudy
11:00 AM 64.4 °F 51.8 °F 64% 30.12 in 6.2 mi WNW 13.8 mph - N/A   Scattered Clouds
11:30 AM 66.2 °F 50.0 °F 56% 30.12 in 6.2 mi NW 15.0 mph - N/A   Mostly Cloudy
12:00 PM 66 °F 51 °F 48% 30.10 in 37 mi NNW 13.4 mph - -   Partly Cloudy
12:00 PM 66.2 °F 51.8 °F 60% 30.12 in 6.2 mi NNW 15.0 mph - N/A   Scattered Clouds
12:30 PM 68.0 °F 50.0 °F 52% 30.12 in 6.2 mi North 12.7 mph - N/A   Scattered Clouds
1:00 PM 67 °F 52 °F 48% 30.10 in 37 mi NNW 11.2 mph - -   Partly Cloudy
1:00 PM 68.0 °F 50.0 °F 52% 30.12 in 6.2 mi NNW 11.5 mph - N/A   Scattered Clouds
1:30 PM 66.2 °F 50.0 °F 56% 30.12 in 6.2 mi NNW 8.1 mph - N/A   Scattered Clouds
2:00 PM 68 °F 49 °F 39% 30.10 in 37 mi NW 8.9 mph - -   Mostly Cloudy
2:00 PM 68.0 °F 51.8 °F 56% 30.12 in 6.2 mi NW 10.4 mph - N/A   Mostly Cloudy
2:30 PM 68.0 °F 51.8 °F 56% 30.12 in 6.2 mi NW 9.2 mph - N/A   Mostly Cloudy
3:00 PM 68 °F 51 °F 44% 30.10 in 37 mi NNW 6.7 mph - -   Mostly Cloudy
3:00 PM 68.0 °F 50.0 °F 52% 30.12 in 6.2 mi NNW 8.1 mph - N/A   Scattered Clouds
3:30 PM 69.8 °F 51.8 °F 53% 30.12 in - NNW 9.2 mph - N/A   Clear
4:00 PM 68 °F 50 °F 43% 30.10 in 37 mi North 6.7 mph - -   Mostly Cloudy
4:00 PM 68.0 °F 51.8 °F 56% 30.12 in 6.2 mi North 9.2 mph - N/A   Partly Cloudy
4:30 PM 68.0 °F 51.8 °F 56% 30.12 in 6.2 mi NNW 9.2 mph - N/A   Partly Cloudy
5:00 PM 68 °F 51 °F 45% 30.10 in 37 mi North 8.9 mph - -   Mostly Cloudy
5:00 PM 68.0 °F 50.0 °F 52% 30.12 in - NNW 10.4 mph - N/A   Clear
5:30 PM 69.8 °F 50.0 °F 49% 30.12 in - North 11.5 mph - N/A   Clear
6:00 PM 67 °F 51 °F 46% 30.09 in 37 mi NNW 8.9 mph - -   Scattered Clouds
6:00 PM 68.0 °F 51.8 °F 56% 30.12 in - North 11.5 mph - N/A   Clear
6:30 PM 68.0 °F 51.8 °F 56% 30.12 in - NNW 8.1 mph - N/A   Clear
7:00 PM 67 °F 49 °F 42% 30.09 in 31 mi NW 8.9 mph - -   Scattered Clouds
7:00 PM 68.0 °F 50.0 °F 52% 30.09 in - NNW 8.1 mph - N/A   Clear
7:30 PM 66.2 °F 50.0 °F 56% 30.12 in - North 6.9 mph - N/A   Clear
8:00 PM 66 °F 51 °F 49% 30.09 in 31 mi North 6.7 mph - -   Scattered Clouds
8:00 PM 66.2 °F 51.8 °F 60% 30.12 in - North 6.9 mph - N/A   Clear
8:30 PM 64.4 °F 51.8 °F 64% 30.12 in - North 8.1 mph - N/A   Clear
9:00 PM 62 °F 51 °F 59% 30.11 in 31 mi North 4.5 mph - -   Scattered Clouds
9:00 PM 60.8 °F 51.8 °F 72% 30.12 in - North 5.8 mph - N/A   Clear
9:30 PM 59.0 °F 51.8 °F 77% 30.12 in - North 5.8 mph - N/A   Clear
10:00 PM 58 °F 51 °F 70% 30.13 in 31 mi North 4.5 mph - -   Scattered Clouds
10:00 PM 59.0 °F 51.8 °F 77% 30.12 in - North 4.6 mph - N/A   Clear
10:30 PM 59.0 °F 51.8 °F 77% 30.12 in 6.2 mi NNE 2.3 mph - N/A   Mostly Cloudy
11:00 PM 57 °F 51 °F 74% 30.14 in 31 mi NW 2.2 mph - -   Partly Cloudy
11:00 PM 57.2 °F 50.0 °F 77% 30.15 in 6.2 mi NE 2.3 mph - N/A   Scattered Clouds
11:30 PM 53.6 °F 50.0 °F 88% 30.15 in - West 2.3 mph - N/A   Clear